Objednávky za rok 2017

január február marec apríl máj jún júl august september október november december

Číslo Dátum vyhotovenia Názov a adresa dodávateľa IČO Popis plnenia Odhadovaná suma bez DPH Zmluva
11648 01.08.2017 SSE-Distribúcia, a.s., Žilina 36442151 vytýčenie elektrických sietí 350,00  nie
11649 01.08.2017 G.P.S. Zvolen, spol. s r.o., Zvolen 36639231 vypracovanie mapy vlastníctva pozemkov 230,00  nie
11650 01.08.2017 Hydroconsulting, s.r.o., Bratislava 35684348 prevádzkový dohľad nad odkaliskom 2017 700,00  nie
11651 01.08.2017 ALKOMA s.r.o., Trenčín 36335631 kalibrácia alkoholtesteru 17,17  nie
11652 01.08.2017 MaR Trade, s.r.o., Žilina 36437743 manometre 951,80  nie
11653 01.08.2017 D.Paučula-Electrical Services, BB 35493267 OP a OS elektrickej inštalácie 4 610,00  nie
11654 01.08.2017 IMET-AKE s.r.o., Zvolen 31341870 ložiská, guferá 8,55  nie
11655 01.08.2017 DRUCKER s.r.o., Čadca 44925417 tonery 742,60  nie
11656 11.08.2017 TECHNIK-stavba a bývanie s.r.o., Zv 47531711 vodoinštalačný materiál 32,33  nie
11657 14.08.2017 AUTOKODUS s.r.o., Zvolen 36530751 autopríslušenstvo 173,70  nie
11658 14.08.2017 AUTOKODUS s.r.o., Zvolen 36530751 výmena oleja a filtra 65,22  nie
11659 15.08.2017 DATACOMP s.r.o., Košice 36212466 PC príslušenstvo 456,29  nie
11660 15.08.2017 KOVOSPOJ v.o.s., Zvolen 31600361 spojovací materiál 33,00  nie
11661 15.08.2017 M.Machay-DESIGN PLUS, Lieskovec 41190904 grafický návrh a tlač Výročnej správy 1 125,00  nie
11662 15.08.2017 NAUTILUS, spol. s r.o., Bratislava 35693142 kopacie práce pásovým bagrom 3 150,00  nie
11663 15.08.2017 NCH SLOVAKIA s.r.o., Bratislava 34096043 uvoľňovač hrdze 325,44  nie
11664 15.08.2017 TEMPRA, s.r.o., Banská Bystrica 31639607 oprava železničnej vlečky 14 623,47  áno
11665 15.08.2017 MURDAX s.r.o., Zvolen 46019219 pranie prádla - chata Priehrada 30,65  nie
11666 16.08.2017 TCF Vzduchotechnika s.r.o., Prachatice, ČR 63910802 šéfmontáž a sprevádzkovanie ventilátora 3 205,06  nie
11667 16.08.2017 GAMO-INSTAL, s.r.o., Malachov 36627429 OP plnynových horákov 420,00  nie
11668 16.08.2017 SLOVING, spol. s r.o., Bratislava 17321069 vnútorné a vonkajšie prehliadky kotlov 2 884,11  áno
11669 16.08.2017 TECHNIK-stavba a bývanie s.r.o., Zv 47531711 inštalačný materiál 24,42  nie
11670 16.08.2017 G.P.S. Zvolen, spol. s r.o., Zvolen 36639231 určenie kubatúr výkopov 840,00  nie
11671 16.08.2017 TeSe s.r.o., Zvolen 47524006 odstránenie netesností nádrže 278,00  nie
11672 16.08.2017 BRONSWERK Heat Transfer spol. s r.o., Benešov n. Ploučnicí 14867125 hnacia tryska a tesnenie vývevy 10 980,00  nie
11673 17.08.2017 MICROWELL, spol. s r.o., Šaľa 31414249 meracie prístroje 1 251,50  nie
11674 17.08.2017 REMA TIP-TOP INCO-SK spol. s r.o., Ladomerská Vieska  31621643 opravná páska, lepidlo, tvrdidlo 249,88  nie
11675 17.08.2017 Izol systém, s.r.o., Trenčín 36317365 izolačné skruže, páska 70,56  nie
11676 18.08.2017 DICONT a.s., Praha, ČR 41190521 prúdový vysielač polohy 467,16  nie
11677 18.08.2017 AUTOKODUS s.r.o., Zvolen 36530751 autopríslušenstvo 62,00  nie
11678 18.08.2017 SVPS, a.s., Banská Bystrica 36644030 prenájom vozidla CAK 150,00  nie
11679 18.08.2017 ZVVZ-Enven Engineering, a.s., Košice 36743291 nastavenie riadiacich skríň 1 260,00  nie
11680 18.08.2017 NCH SLOVAKIA s.r.o., Bratislava 34096043 čistiace a odmasťovacie prípravky 1 714,55  nie
11681 18.08.2017 WOLCAT, s.r.o., Zvolenská Slatina 50326392 zapožičanie elektrocentrály 25,00  nie
11682 18.08.2017 ENERGO CONTROL s.r.o., Košice 36205788 technická pomoc pri nábehu TG01 a TG5 1 000,00  nie
11683 18.08.2017 Beličková s.r.o., Zvolen 45902836 farby, laky, náradie 567,65  nie
11684 18.08.2017 MIKAPO s.r.o., Zvolen 44721277 minerálna voda 222,72  nie
11685 18.08.2017 Izol systém, s.r.o., Trenčín 36317365 izolačná skruž, páska 133,24  nie
11686 21.08.2017 Scandi s.r.o., Zvolen 36642983 hygienické pomôcky 180,00  nie
11687 21.08.2017 SLOVING, spol. s r.o., Bratislava 17321069 poskytovanie stojných činností 09/2017 14 139,48  áno
11688 21.08.2017 AVJ-EKON SERVIS, s.r.o., B. Bystrica 36626511 OP a OS kladkostrojov 485,00  nie
11689 21.08.2017 W.R.V., s.r.o., Zvolen 46420096 ND na priemyselný vysávač 82,00  nie
11690 21.08.2017 Truck Data Technology, s.r.o., Nitra 46127241 ročný licensčný poplatok za softvér 55,00  nie
11691 23.08.2017 OLBA, s.r.o., Zemianske Kostoľany 36786900 vypracovanie štúdie ohrozenia územia 750,00  nie
11692 23.08.2017 EUROMOTOR spol. s r.o., B. Bystrica 31561357 servisná prehliadka vozidla 1 000,00  nie
11693 23.08.2017 PRAKTIKPUMP, spol. s r.o., Zvolen 36647861 ponorné čerpadlo 75,00  nie
11694 24.08.2017 UNICARBACK, s.r.o., Žilina 46643206 kosenie trávnatých plôch 1 115,91  áno
11695 24.08.2017 SLOVING, spol. s r.o., Bratislava 17321069 poskytovanie stojných činností 09/2017 7 069,74  áno
11696 24.08.2017 Xepap, spol. s r.o., Zvolen 31628605 kancelárske potreby 191,66  nie
11697 24.08.2017 DIVER s.r.o., Žilina 44562951 potápačské práce v HC Slatina 600,00  nie
11698 24.08.2017 Pneu Comp, s.r.o., Nové Zámky 36527696 pretesnenie pneumatík nakladača 300,00  nie
11699 24.08.2017 EPO Zvolen s.r.o., Zvolen 652598 stykače 124,00  nie
11700 25.08.2017 AQUAFIND-Ivan Smutný, Detva 34322108 lokalizácia miesta poruchy 437,20  nie
11701 25.08.2017 EUROSTEEL PLUS s.r.o., Žilina 50133594 hutný materiál 186,00  nie
11702 25.08.2017 CHIVA SK spol. s r.o., Zvolen 46472762 armatúry, tesnenia, spojovací materiál 1 618,76  nie
11703 25.08.2017 BORMIS, s.r.o., Svätý Jur 36747378 OOPP 1 048,36  nie
11704 28.08.2017 OSKO, a.s., Zvolen 36044717 elektroinštalačný materiál 97,25  nie
11705 30.08.2017 AUTOKODUS s.r.o., Zvolen 36530751 čistenie interiéru, oprava nápravy 560,00  nie
11706 30.08.2017 AUTOKODUS s.r.o., Zvolen 36530751 autopoťahy 35,00  nie
11707 31.08.2017 TeSe s.r.o., Zvolen 47524006 premeranie vnútorného pogumovania 378,00 nie